Home   Weather   Gurgaon   Past weeks

Flag for India Past Weather in Gurgaon, Haryana, India — Yesterday and Last 2 Weeks

Now
81 °F

Haze.


Feels Like: 80 °F
Forecast: 81 / 100 °F
Wind: 5 mph from Southwest

Location: New Delhi Palam Airport

Current Time: Apr 28, 2017 at 6:36:59 am

Latest Report: Apr 28, 2017 at 6:00 am


Visibility: 2 mi

Pressure: 29.77 "Hg

Humidity: 37%

Dew Point: 52 °F

Location of GurgaonLocation

Past Weather in Gurgaon — Graph

°F

Gurgaon Temperature Yesterday

Maximum temperature yesterday: 100 °F (at 1:00 pm)
Minimum temperature yesterday: 79 °F (at 5:30 am)
Average temperature yesterday: 90 °F

High & Low Weather Summary for the Past Weeks

 TemperatureHumidityPressure
High113 °F (Apr 18, 4:00 pm)58% (Apr 18, 6:30 am)29.83 "Hg (Apr 18, 6:30 am)
Low72 °F (Apr 13, 6:30 am)8% (Apr 15, 3:30 pm)29.50 "Hg (Apr 20, 3:30 pm)
Average93 °F26%29.68 "Hg
* Reported Apr 13 5:30 am — Apr 28 5:30 am, Gurgaon, Weather by CustomWeather, © 2017

Note: Actual official high and low records may vary slightly from our data, if they occured in-between our weather recording intervals... More about our weather records

Advertising

Gurgaon Weather History for the Previous 24 Hours

Scroll right to see more
 ConditionsComfort  
Time TempWeatherWind HumidityBarometerVisibility
5:30 am
Fri, Apr 28
81 °FHaze.No wind37%29.74 "Hg2 mi
5:00 am82 °FHaze.No wind32%29.74 "Hg2 mi
4:30 am82 °FHaze.5 mph35%29.74 "Hg2 mi
4:00 am82 °FHaze.5 mph35%29.74 "Hg2 mi
3:30 am86 °FPassing clouds.3 mph29%29.74 "Hg2 mi
3:00 am86 °FPassing clouds.No wind29%29.74 "Hg2 mi
2:30 am86 °FPassing clouds.No wind29%29.74 "Hg2 mi
2:00 am86 °FPassing clouds.No wind27%29.74 "Hg2 mi
1:30 am86 °FPassing clouds.5 mph25%29.77 "Hg2 mi
1:00 am88 °FPassing clouds.5 mph24%29.77 "Hg2 mi
12:30 am88 °FPassing clouds.5 mph24%29.77 "Hg2 mi
12:00 am88 °FPassing clouds.5 mph24%29.80 "Hg2 mi
11:30 pm
Thu, Apr 27
88 °FPassing clouds.6 mph24%29.80 "Hg2 mi
11:00 pm88 °FPassing clouds.7 mph25%29.80 "Hg2 mi
10:30 pm88 °FPassing clouds.12 mph25%29.80 "Hg2 mi
10:00 pm88 °FPassing clouds.13 mph25%29.83 "Hg2 mi
9:30 pm91 °FPassing clouds.12 mph21%29.83 "Hg2 mi
9:00 pm91 °FPassing clouds.6 mph21%29.80 "Hg2 mi
8:30 pm91 °FPassing clouds.9 mph21%29.77 "Hg2 mi
8:00 pm91 °FPassing clouds.10 mph21%29.77 "Hg2 mi
7:30 pm91 °FPassing clouds.9 mph21%29.74 "Hg2 mi
7:00 pm95 °FScattered clouds.6 mph19%29.74 "Hg2 mi
6:00 pm99 °FScattered clouds.9 mph18%29.71 "Hg2 mi
5:30 pm99 °FScattered clouds.9 mph18%29.71 "Hg2 mi
5:00 pm99 °FScattered clouds.7 mph18%29.71 "Hg2 mi
4:00 pm100 °FScattered clouds.10 mph17%29.71 "Hg2 mi
3:30 pm100 °FScattered clouds.7 mph22%29.74 "Hg2 mi
3:00 pm100 °FScattered clouds.7 mph20%29.74 "Hg2 mi
2:30 pm100 °FScattered clouds.7 mph20%29.77 "Hg2 mi
2:00 pm100 °FScattered clouds.8 mph18%29.77 "Hg2 mi
1:30 pm100 °FScattered clouds.8 mph18%29.80 "Hg2 mi
1:00 pm100 °FScattered clouds.8 mph18%29.80 "Hg2 mi
12:30 pm99 °FScattered clouds.8 mph19%29.80 "Hg2 mi
12:00 pm97 °FScattered clouds.8 mph20%29.83 "Hg2 mi
11:30 am97 °FScattered clouds.7 mph19%29.83 "Hg2 mi
11:00 am95 °FScattered clouds.5 mph19%29.83 "Hg2 mi
10:30 am93 °FScattered clouds.6 mph20%29.83 "Hg2 mi
10:00 am90 °FBroken clouds.5 mph22%29.83 "Hg2 mi
9:00 am88 °FBroken clouds.6 mph21%29.80 "Hg2 mi
8:30 am86 °FBroken clouds.9 mph24%29.80 "Hg2 mi
8:00 am86 °FBroken clouds.9 mph25%29.83 "Hg2 mi
7:30 am82 °FThunderstorms. Broken clouds.18 mph30%29.80 "Hg2 mi
7:00 am82 °FThunderstorms. Broken clouds.12 mph28%29.80 "Hg2 mi
6:30 am82 °FBroken clouds.9 mph26%29.80 "Hg2 mi
6:00 am79 °FPassing clouds.No wind34%29.74 "Hg2 mi
Weather by CustomWeather, © 2017

See weather overviewHow to use our weather pages